Location: Newark
(40.3500°N, 15.2333°E)
Time: 01:09:38
(UTC+00:00)

NOAA 19 - Pass Details

Date: 01 March 2020
Orbit: 842 x 860 km, 99.2° (Epoch: 08 April)

Event Time Altitude Azimuth Distance (km) Brightness Sun altitude
Rises 03:47:59 0° 29° (NNE) 3,428 8.9 -20.7°
Reaches altitude 10° 03:50:59 10° 46° (NE) 2,490 8.4 -20.1°
Maximum altitude 03:55:03 21° 94° (E) 1,842 7.9 -19.3°
Drops below altitude 10° 03:59:07 10° 141° (SE) 2,485 8.1 -18.5°
Sets 04:02:05 0° 157° (SSE) 3,419 8.6 -18.0°
